Brownwood, TX

10:24 AM CDT on September 27, 2016 (GMT -0500)
Brownwood Regional

Weather History for KBWD - July, 2013

Change the Weather History Date:

Thursday, July 18, 2013

  Actual Average (KABI) Record (KABI)
Temperature  
Mean Temperature 79 °F 83 °F  
Max Temperature 89 °F 95 °F 110 °F (1886)
Min Temperature 69 °F 72 °F 66 °F (1960)
Degree Days  
Heating Degree Days 0 0  
Month to date heating degree days 0  
Since 1 June heating degree days 1  
Since 1 July heating degree days 0  
Cooling Degree Days 14 18  
Month to date cooling degree days 317  
Year to date cooling degree days 1149  
Since 1 June cooling degree days 752  
Growing Degree Days 29 (Base 50)    
Moisture  
Dew Point 67 °F    
Average Humidity 74    
Maximum Humidity 100    
Minimum Humidity 38    
Precipitation  
Precipitation 0.00 in 0.06 in 1.20 in (1968)
Month to date precipitation 1.13  
Year to date precipitation 13.63  
Sea Level Pressure  
Sea Level Pressure 30.16 in    
Wind  
Wind Speed 2 mph (SE)    
Max Wind Speed 10 mph    
Max Gust Speed -    
Visibility 10 miles    
Events Rain    
T = Trace of Precipitation, MM = Missing Value Source: NWS Daily Summary

Daily Weather History Graph

Daily Weather History Graph

Search for Another Location

Airport or City:

Trip Planner

Search our weather history database for the weather conditions in past years. The results will help you decide how hot, cold, wet, or windy it might be!

Date:

Astronomy

Jul. 18, 2013 Rise Set
Actual Time 6:42 AM CDT 8:41 PM CDT
Civil Twilight 6:15 AM CDT 9:08 PM CDT
Nautical Twilight 5:42 AM CDT 9:41 PM CDT
Astronomical Twilight 5:06 AM CDT 10:16 PM CDT
Moon 4:41 PM CDT (7/18) 2:31 AM CDT (7/18)
Length of Visible Light 14h 52m
Length of Day
13h 58m
Waxing Gibbous, 77% of the Moon is Illuminated
Jul 18
Waxing Gibbous
Jul 22
Full
Jul 29
Last Quarter
Aug 6
New
Aug 14
First Quarter

Hourly Weather History & Observations

Time (CDT) Temp. Heat Index Dew Point Humidity Pressure Visibility Wind Dir Wind Speed Gust Speed Precip Events Conditions
12:15 AM 71.6 °F - 69.8 °F 94% 30.21 in 10.0 mi Calm Calm - N/A   Partly Cloudy
12:35 AM 71.6 °F - 69.8 °F 94% 30.21 in 10.0 mi Calm Calm - N/A   Partly Cloudy
12:55 AM 71.6 °F - 69.8 °F 94% 30.21 in 10.0 mi Calm Calm - N/A   Clear
1:15 AM 69.8 °F - 69.8 °F 100% 30.21 in 10.0 mi SE 3.5 mph - N/A   Clear
1:35 AM 69.8 °F - 68.0 °F 94% 30.21 in 10.0 mi Calm Calm - N/A   Partly Cloudy
1:55 AM 69.8 °F - 68.0 °F 94% 30.21 in 10.0 mi SE 3.5 mph - N/A   Mostly Cloudy
2:15 AM 69.8 °F - 68.0 °F 94% 30.21 in 10.0 mi Calm Calm - N/A   Overcast
2:35 AM 69.8 °F - 68.0 °F 94% 30.21 in 10.0 mi Calm Calm - N/A   Overcast
2:55 AM 69.8 °F - 68.0 °F 94% 30.21 in 10.0 mi Calm Calm - N/A   Overcast
3:15 AM 69.8 °F - 68.0 °F 94% 30.21 in 10.0 mi Calm Calm - N/A   Mostly Cloudy
3:35 AM 69.8 °F - 68.0 °F 94% 30.21 in 10.0 mi Calm Calm - N/A   Scattered Clouds
3:55 AM 69.8 °F - 68.0 °F 94% 30.21 in 10.0 mi Calm Calm - N/A   Partly Cloudy
4:15 AM 69.8 °F - 68.0 °F 94% 30.21 in 10.0 mi Calm Calm - N/A   Mostly Cloudy
4:35 AM 69.8 °F - 69.8 °F 100% 30.21 in 10.0 mi Calm Calm - N/A   Mostly Cloudy
4:55 AM 69.8 °F - 69.8 °F 100% 30.20 in 10.0 mi Calm Calm - N/A   Overcast
5:15 AM 69.8 °F - 69.8 °F 100% 30.20 in 9.0 mi Calm Calm - N/A   Overcast
5:35 AM 69.8 °F - 69.8 °F 100% 30.20 in 9.0 mi Calm Calm - N/A Rain Light Rain
5:55 AM 69.8 °F - 68.0 °F 94% 30.20 in 10.0 mi Calm Calm - N/A   Mostly Cloudy
6:15 AM 69.8 °F - 69.8 °F 100% 30.20 in 10.0 mi Calm Calm - N/A   Mostly Cloudy
6:35 AM 71.6 °F - 69.8 °F 94% 30.20 in 9.0 mi Calm Calm - N/A   Mostly Cloudy
6:55 AM 69.8 °F - 69.8 °F 100% 30.20 in 9.0 mi Calm Calm - N/A   Scattered Clouds
7:15 AM 71.6 °F - 69.8 °F 94% 30.21 in 2.5 mi East 3.5 mph - N/A   Partly Cloudy
7:35 AM 71.6 °F - 69.8 °F 94% 30.21 in 5.0 mi Calm Calm - N/A   Clear
7:55 AM 71.6 °F - 69.8 °F 94% 30.21 in 5.0 mi ENE 3.5 mph - N/A   Scattered Clouds
8:15 AM 71.6 °F - 69.8 °F 94% 30.22 in 2.5 mi Calm Calm - N/A   Mostly Cloudy
8:35 AM 73.4 °F - 69.8 °F 88% 30.22 in 10.0 mi Calm Calm - N/A   Scattered Clouds
8:55 AM 73.4 °F - 68.0 °F 83% 30.22 in 10.0 mi Calm Calm - N/A   Mostly Cloudy
9:15 AM 75.2 °F - 69.8 °F 83% 30.22 in 10.0 mi Calm Calm - N/A   Scattered Clouds
9:35 AM 75.2 °F - 69.8 °F 83% 30.22 in 10.0 mi Calm Calm - N/A   Partly Cloudy
9:55 AM 75.2 °F - 69.8 °F 83% 30.22 in 10.0 mi ESE 5.8 mph - N/A   Mostly Cloudy
10:15 AM 77.0 °F - 71.6 °F 83% 30.22 in 10.0 mi SSE 4.6 mph - N/A   Scattered Clouds
10:35 AM 77.0 °F - 71.6 °F 83% 30.23 in 10.0 mi SE 6.9 mph - N/A   Mostly Cloudy
10:55 AM 77.0 °F - 71.6 °F 83% 30.23 in 10.0 mi SE 5.8 mph - N/A   Mostly Cloudy
11:15 AM 78.8 °F - 69.8 °F 74% 30.23 in 10.0 mi SSE 4.6 mph - N/A   Scattered Clouds
11:35 AM 80.6 °F 83.2 °F 68.0 °F 65% 30.22 in 10.0 mi SE 8.1 mph - N/A   Partly Cloudy
11:55 AM 82.4 °F 85.4 °F 68.0 °F 62% 30.22 in 10.0 mi SSE 10.4 mph - N/A   Partly Cloudy
12:15 PM 82.4 °F 85.4 °F 68.0 °F 62% 30.22 in 10.0 mi ESE 9.2 mph - N/A   Scattered Clouds
12:35 PM 82.4 °F 84.6 °F 66.2 °F 58% 30.21 in 10.0 mi SSE 6.9 mph - N/A   Mostly Cloudy
12:55 PM 82.4 °F 84.6 °F 66.2 °F 58% 30.21 in 10.0 mi SE 8.1 mph - N/A   Scattered Clouds
1:15 PM 84.2 °F 86.6 °F 66.2 °F 55% 30.20 in 10.0 mi SSE 8.1 mph - N/A   Partly Cloudy
1:35 PM 84.2 °F 86.6 °F 66.2 °F 55% 30.19 in 10.0 mi South 10.4 mph - N/A   Clear
1:55 PM 84.2 °F 86.6 °F 66.2 °F 55% 30.18 in 10.0 mi SE 8.1 mph - N/A   Partly Cloudy
2:15 PM 84.2 °F 86.6 °F 66.2 °F 55% 30.17 in 10.0 mi ESE 6.9 mph - N/A   Partly Cloudy
2:35 PM 84.2 °F 86.6 °F 66.2 °F 55% 30.16 in 10.0 mi SE 3.5 mph - N/A   Partly Cloudy
2:55 PM 84.2 °F 85.6 °F 64.4 °F 51% 30.15 in 10.0 mi SE 5.8 mph - N/A   Scattered Clouds
3:15 PM 86.0 °F 87.3 °F 64.4 °F 48% 30.14 in 10.0 mi East 9.2 mph - N/A   Scattered Clouds
3:35 PM 87.8 °F 89.4 °F 64.4 °F 46% 30.13 in 10.0 mi SE 8.1 mph - N/A   Scattered Clouds
3:55 PM 86.0 °F 87.3 °F 64.4 °F 48% 30.12 in 10.0 mi SE 8.1 mph - N/A   Mostly Cloudy
4:15 PM 87.8 °F 89.4 °F 64.4 °F 46% 30.11 in 10.0 mi ESE 6.9 mph - N/A   Scattered Clouds
5:15 PM 89.6 °F 89.5 °F 60.8 °F 38% 30.09 in 10.0 mi South 6.9 mph - N/A   Partly Cloudy
5:35 PM 89.6 °F 90.1 °F 62.6 °F 40% 30.08 in 10.0 mi South 9.2 mph - N/A   Partly Cloudy
5:55 PM 89.6 °F 90.1 °F 62.6 °F 40% 30.07 in 10.0 mi SSE 6.9 mph - N/A   Scattered Clouds
6:15 PM 89.6 °F 90.1 °F 62.6 °F 40% 30.07 in 10.0 mi SE 10.4 mph - N/A   Partly Cloudy
6:35 PM 86.0 °F 86.6 °F 62.6 °F 45% 30.06 in 10.0 mi SSE 5.8 mph - N/A   Clear
6:55 PM 87.8 °F 88.5 °F 62.6 °F 43% 30.06 in 10.0 mi SSE 6.9 mph - N/A   Clear
7:15 PM 87.8 °F 88.5 °F 62.6 °F 43% 30.05 in 10.0 mi SSE 5.8 mph - N/A   Clear
7:35 PM 86.0 °F 86.6 °F 62.6 °F 45% 30.05 in 10.0 mi SE 8.1 mph - N/A   Clear
7:55 PM 86.0 °F 87.3 °F 64.4 °F 48% 30.05 in 10.0 mi ESE 9.2 mph - N/A   Clear
8:15 PM 84.2 °F 85.6 °F 64.4 °F 51% 30.05 in 10.0 mi ESE 5.8 mph - N/A   Clear
8:35 PM 82.4 °F 84.6 °F 66.2 °F 58% 30.06 in 10.0 mi ESE 3.5 mph - N/A   Clear
8:55 PM 80.6 °F 83.2 °F 68.0 °F 65% 30.06 in 10.0 mi East 4.6 mph - N/A   Clear
9:15 PM 80.6 °F 82.7 °F 66.2 °F 61% 30.06 in 10.0 mi East 3.5 mph - N/A   Clear
9:35 PM 78.8 °F - 66.2 °F 65% 30.07 in 10.0 mi East 3.5 mph - N/A   Clear
9:55 PM 77.0 °F - 68.0 °F 74% 30.08 in 10.0 mi East 3.5 mph - N/A   Clear
10:15 PM 77.0 °F - 66.2 °F 69% 30.08 in 10.0 mi ENE 4.6 mph - N/A   Clear
10:35 PM 75.2 °F - 68.0 °F 78% 30.09 in 10.0 mi Calm Calm - N/A   Clear
10:55 PM 77.0 °F - 66.2 °F 69% 30.10 in 10.0 mi Calm Calm - N/A   Clear
11:15 PM 75.2 °F - 69.8 °F 83% 30.09 in 10.0 mi Calm Calm - N/A   Clear
11:35 PM 75.2 °F - 66.2 °F 73% 30.10 in 10.0 mi Calm Calm - N/A   Clear
11:55 PM 73.4 °F - 68.0 °F 83% 30.09 in 10.0 mi Calm Calm - N/A   Clear